Location: Bündheim
(51.8881°N, 10.5488°E)
Time: 08:43:21
(UTC+00:00)

Daily predictions for brighter satellites

Satellite Brightness Start Highest point End
(mag) Time Altitude Azimuth Time Altitude Azimuth Time Altitude Azimuth
Cosmos 1459 Rocket 4.5 19:36:23 10° SSW 19:42:32 67° WNW 19:48:39 10° N
Cosmos 2061 Rocket 4.2 19:37:53 10° S 19:43:58 59° E 19:50:10 10° NNE
CZ-4 R/B 2.8 19:41:56 10° SSW 19:45:15 34° W 19:48:36 10° NNW
USA 186 1.9 19:43:26 10° SE 19:46:03 44° ENE 19:48:43 10° N
Cosmos 2228 2.9 19:42:26 10° S 19:46:31 76° E 19:50:37 10° NNE
COSMOS 2406 3.6 19:41:46 10° S 19:47:10 44° ESE 19:52:35 10° NE
SL-08 R/B 3.4 19:42:28 10° NNE 19:47:14 58° ESE 19:51:53 10° S
CZ-4B R/B 4.3 19:44:08 10° SE 19:48:24 34° ENE 19:52:47 10° N
Cosmos 1743 3.8 19:45:55 10° NNW 19:48:41 33° W 19:51:26 10° SSW
Cosmos 1933 4.3 19:46:00 10° SSE 19:49:11 26° E 19:52:24 10° NNE
ISS -3.8 19:46:36 10° W 19:49:57 83° S 19:53:19 10° E
Cosmos 1461 3.3 19:47:43 10° S 19:51:01 31° ESE 19:54:19 10° ENE
SKYMED 3 4.3 19:47:10 10° NNE 19:51:07 75° E 19:55:06 10° S
Cosmos 1455 Rocket 3.5 19:46:57 10° SSW 19:51:19 66° WNW 19:55:42 10° N
Cosmos 1992 Rocket 4.1 19:46:20 10° S 19:51:26 60° ESE 19:56:35 10° NNE
Cosmos 1802 Rocket 4.3 19:46:11 10° SSW 19:52:20 74° WNW 19:58:30 10° N
Meteor 1-20 Rocket 4.4 19:47:30 10° N 19:53:03 60° ENE 19:58:40 10° SSE
Terra 2.4 19:48:41 10° S 19:53:18 57° W 19:57:57 10° NNW
Okean O Rocket 1.6 19:53:33 10° SSE 19:57:50 83° ENE 20:02:10 10° NNW
Cosmos 2333 Rocket 2.3 19:52:52 10° NNW 19:58:37 77° ENE 20:04:20 10° SE
NOSS 3-3 (A) 3.7 19:59:45 10° SW 20:05:00 79° SE 20:11:23 10° NE
Cosmos 1544 Rocket 3.7 20:00:52 10° S 20:05:04 52° E 20:09:17 10° NNE
Cosmos 1437 Rocket 3.0 20:04:09 10° SSE 20:07:31 42° E 20:10:57 10° NNE
Helios 1A Rocket 3.4 20:05:34 10° N 20:08:36 45° WNW 20:11:37 10° SW
Cosmos 2360 Rocket 2.5 20:03:00 10° NNW 20:08:38 58° NE 20:13:59 11° SE
EP 1 4.2 20:10:57 10° NW 20:13:33 86° SW 20:15:43 14° SE
CZ-4B R/B 4.2 20:08:18 10° S 20:13:44 47° W 20:19:08 10° NNW
Cosmos 2233 Rocket 4.2 20:09:43 10° SSW 20:15:54 76° W 20:22:06 10° N
Cosmos 1486 Rocket 4.1 20:13:53 10° NNW 20:19:09 71° ENE 20:23:55 13° SSE
Okean-O 3.0 20:15:43 10° S 20:20:03 63° WSW 20:24:25 10° NNW
Cosmos 1758 Rocket 3.7 20:16:35 10° NNW 20:20:59 75° W 20:25:23 10° S
Cosmos 2219 Rocket 2.8 20:15:50 10° NNW 20:21:20 48° NE 20:26:24 12° SE
Cosmos 909 Rocket 4.1 20:15:58 10° SW 20:22:16 88° SE 20:28:55 10° NE
CZ-2C R/B 3.0 20:21:09 15° SE 20:22:58 30° ENE 20:25:28 10° N
DNEPR-1 R/B 4.4 20:23:48 10° NW 20:29:12 76° SW 20:34:57 14° SSE
Nadezhda 4 Rocket 4.2 20:24:10 10° N 20:30:12 57° ENE 20:35:27 14° SSE
Meteor 1-25 Rocket 4.2 20:24:43 10° NNW 20:30:26 85° ENE 20:35:42 12° SSE
USA 245 4.3 20:25:43 10° SSE 20:31:37 88° W 20:37:04 10° NNW
IRS-1C Rocket 4.2 20:27:08 13° SSE 20:31:55 73° ENE 20:37:12 10° NNW
Cosmos 1825 Rocket 4.0 20:29:25 10° N 20:33:38 47° ENE 20:36:52 16° SE
Cosmos 1805 2.8 20:31:00 10° N 20:34:16 65° ENE 20:36:34 18° SSE
Cosmos 220 Rocket 3.8 20:33:28 10° SSW 20:37:28 63° ESE 20:41:33 10° NNE
NOSS 3-3 (C) 3.9 20:32:13 10° SW 20:37:35 82° NW 20:44:10 10° NE
Meteor 2-10 4.3 20:32:21 10° N 20:38:06 68° ENE 20:42:50 15° SSE
Cosmos 1953 Rocket 4.5 20:36:20 10° N 20:40:19 34° ENE 20:43:09 17° SE
Cosmos 2322 Rocket 2.2 20:35:30 10° NNW 20:41:12 85° WSW 20:45:50 16° SSE
RESURS DK-1 4.3 20:38:53 10° N 20:41:58 21° NE 20:45:03 10° E
Cosmos 1602 Rocket 3.7 20:40:38 10° NNW 20:44:56 74° W 20:48:44 13° S
USA 306 2.3 20:43:34 10° W 20:46:15 42° N 20:47:38 14° ENE
Cosmos 2082 Rocket 3.5 20:41:53 10° WSW 20:47:21 45° NW 20:52:50 10° NNE
NOSS 3-4 (A) 3.9 20:42:13 10° NW 20:48:49 70° SW 20:55:07 16° SSE
NOSS 3-4 (C) 3.9 20:42:51 10° NW 20:49:28 71° SW 20:55:45 17° SSE
Cosmos 1707 3.9 20:52:04 15° E 20:52:22 16° E 20:54:09 10° NE
Cosmos 2026 Rocket 4.5 20:46:14 10° N 20:52:27 50° ENE 20:57:08 18° SE
CZ-4B R/B 3.0 20:49:58 15° S 20:52:38 54° W 20:56:05 10° NNW
Cosmos 2151 4.0 20:51:16 10° NNW 20:55:08 40° W 20:58:57 10° SSW
Cosmos 2058 Rocket 4.4 20:53:53 17° ESE 20:55:48 24° E 20:59:16 10° NE
Cosmos 1076 Rocket 3.6 20:53:28 10° N 20:57:41 60° ENE 21:00:20 21° SSE
Cosmos 2098 Rocket 3.0 20:53:24 11° S 20:57:50 81° E 21:01:52 10° NNE
Cosmos 44 3.8 20:53:17 10° NW 20:58:41 66° NE 21:02:45 17° SE
Cosmos 2237 Rocket 4.1 20:54:41 10° NNW 20:59:06 22° NE 21:03:30 10° E
CZ-4C R/B 4.1 20:56:36 10° W 21:01:01 32° NNW 21:06:38 10° NE
Ariane Rocket 3.2 20:59:02 15° S 21:03:12 66° WSW 21:08:16 10° NNW
SL-16 R/B 3.5 21:07:06 10° NW 21:12:05 32° WSW 21:16:43 11° SSW
COSMOS 2428 3.5 21:07:46 10° NNW 21:13:13 43° NE 21:17:37 15° ESE
SPOT 3 Rocket 4.4 21:09:24 12° S 21:13:56 44° W 21:18:52 10° NNW
Cosmos 1470 4.3 21:12:28 10° NNE 21:14:54 19° ENE 21:16:07 16° E
Cosmos 1763 Rocket 3.6 21:10:53 15° S 21:15:15 60° ESE 21:20:27 10° NNE
USA 186 4.4 21:15:07 10° W 21:15:40 10° W 21:16:13 10° WNW
ARIANE 5 R/B 4.3 21:15:19 14° ESE 21:18:05 23° ENE 21:21:38 10° N
ALOS 2 4.5 21:17:23 12° ESE 21:20:09 21° ENE 21:23:25 10° NNE
USA 290 2.1 21:18:07 19° SSW 21:20:16 86° WNW 21:23:26 10° NNE
Cosmos 1606 Rocket 3.6 21:17:15 16° SSW 21:20:43 79° WNW 21:25:03 10° N
Cosmos 1898 Rocket 4.3 21:15:58 10° NNW 21:20:55 43° NE 21:24:24 18° ESE
Cosmos 990 Rocket 4.0 21:17:41 10° NNW 21:22:52 76° WSW 21:26:04 24° SSE
Cosmos 1464 Rocket 4.1 21:18:41 10° SSW 21:24:45 77° WNW 21:30:59 10° N
Helios 1B rocket 3.0 21:24:22 24° ESE 21:25:48 36° ENE 21:29:03 10° N
ISS -3.9 21:23:24 10° W 21:26:44 72° SSW 21:28:15 30° ESE
CZ-4B R/B 4.4 21:23:15 14° SSW 21:26:58 39° W 21:31:32 10° NNW
Cosmos 1461 4.1 21:23:45 10° WSW 21:27:14 38° NW 21:30:42 10° NNE
Okean 1 3.1 21:25:54 22° SSW 21:28:07 74° WNW 21:31:44 10° N
Cosmos 1726 Rocket 3.3 21:25:49 22° S 21:28:23 89° W 21:32:27 10° N
BREEZE-M DEB (TANK) 1.9 21:26:32 10° W 21:28:12 34° SW 21:28:12 34° SW
COSMOS 2406 4.5 21:26:03 10° WSW 21:31:31 43° NW 21:36:59 10° NNE
Okean O Rocket 4.1 21:32:33 10° WSW 21:34:38 13° W 21:36:43 10° WNW
Cosmos 1536 2.7 21:31:55 10° N 21:35:35 64° ENE 21:36:59 35° SSE
Cosmos-2242 2.9 21:37:47 30° S 21:39:43 69° E 21:43:50 10° NNE
Cosmos 1092 Rocket 4.0 21:35:13 10° N 21:41:26 87° E 21:45:20 25° S
Cosmos 2333 Rocket 4.0 21:38:01 10° NW 21:42:19 22° WSW 21:46:30 10° SSW
NOSS 0 Rocket 4.4 21:36:21 10° NNW 21:42:26 56° NE 21:46:51 19° ESE
KORONAS-FOTON 3.8 21:43:53 40° SE 21:44:37 49° E 21:47:55 10° NNE
Cosmos 2297 Rocket 3.7 21:46:14 17° ESE 21:47:32 18° E 21:51:15 10° ENE
Cosmos 841 Rocket 4.4 21:47:27 26° SE 21:49:10 32° ESE 21:53:46 10° NE
Cosmos 1833 4.2 21:44:25 10° SSW 21:50:06 86° WNW 21:55:46 10° NNE
Meteor 1-14 Rocket 4.5 21:46:12 10° N 21:51:42 58° ENE 21:54:40 27° SE
Cosmos 2360 Rocket 3.5 21:47:25 10° NW 21:52:19 30° WSW 21:55:44 17° SSW
CZ-2C R/B 4.4 21:52:45 12° WSW 21:53:48 14° W 21:55:28 10° WNW
Cosmos 1766 3.2 21:52:45 10° NNW 21:55:54 53° W 21:56:45 39° SSW
Cosmos 1842 3.0 21:56:49 46° ESE 21:57:08 48° E 22:00:12 10° NNE
Cosmos 2322 3.7 21:51:25 10° NNW 21:57:09 85° ENE 22:00:18 28° SSE
Cosmos 1975 3.2 21:54:36 10° N 21:58:10 44° ENE 21:59:14 34° ESE
Spot 4 4.3 21:57:15 27° SE 21:59:37 52° ENE 22:04:17 10° N
Meteor 2-6 Rocket 4.4 21:58:28 27° S 22:01:44 65° E 22:07:37 10° NNE
Cosmos 372 Rocket 3.9 21:57:54 10° NNW 22:03:01 76° WSW 22:05:24 32° SSE
Cosmos 2034 Rocket 4.4 21:58:36 15° SSW 22:03:59 62° WNW 22:10:17 10° N
Cosmos 2221 3.1 22:03:18 32° SE 22:04:26 40° E 22:08:23 10° NNE
Cosmos 2219 Rocket 3.1 22:00:00 10° NW 22:05:10 37° WSW 22:08:05 22° SSW
Cosmos 1271 Rocket 2.5 22:06:21 49° SE 22:06:51 55° E 22:10:10 10° NNE
SL-08 ROCKET BODY 4.4 22:04:01 10° N 22:10:14 87° E 22:13:38 29° S
Cosmos 540 Rocket 4.0 22:07:44 11° SW 22:12:33 58° WNW 22:17:38 10° NNE
Helios 1A 3.1 22:12:25 10° N 22:16:18 65° WNW 22:18:07 30° SW
RESURS DK-1 2.3 22:15:46 10° NW 22:19:43 66° WSW 22:20:45 45° S
Cosmos 2279 Rocket 4.0 22:16:39 28° S 22:20:09 79° E 22:26:27 10° NNE
Aureole 1 Rocket 4.5 22:15:25 10° NW 22:21:00 49° WSW 22:24:34 26° SSW
Cosmos 1707 3.6 22:23:33 23° WSW 22:24:22 27° WNW 22:26:51 10° NNW
Cosmos 2322 Rocket 4.2 22:20:54 10° WNW 22:24:23 17° W 22:27:37 11° SW
Cosmos 1634 Rocket 4.1 22:22:33 23° SSW 22:26:35 71° WNW 22:32:49 10° N
Meteor 1-19 Rocket 4.4 22:24:37 31° SSE 22:27:22 63° E 22:33:16 10° NNE
Cosmos 1937 Rocket 3.4 22:22:46 10° NNW 22:27:57 84° WSW 22:30:09 35° SSE
TSX-5 4.3 22:27:00 10° NW 22:29:52 32° WSW 22:29:54 32° WSW
Geosat 4.1 22:26:57 10° NNE 22:31:58 73° NW 22:35:38 18° SW
SL-16 R/B 3.9 22:27:29 10° NNW 22:32:24 28° NE 22:37:17 10° E
CZ-2C R/B 3.6 22:28:05 10° NNE 22:32:34 78° ESE 22:34:15 39° S
Cosmos 2058 Rocket 4.0 22:30:59 22° SW 22:33:25 43° WNW 22:37:34 10° N
Cosmos 468 Rocket 4.3 22:30:13 20° SW 22:33:56 67° WNW 22:39:11 10° NNE
GP-B 3.6 22:30:36 10° NNE 22:34:50 46° E 22:36:11 34° SE
Meteor 2-9 Rocket 4.2 22:33:33 10° NNW 22:38:56 69° W 22:41:24 33° S
CZ-2C R/B 3.3 22:39:09 23° SE 22:42:06 45° ENE 22:47:02 10° N
Lacrosse 4 Rocket 2.8 22:42:44 22° ESE 22:42:44 22° ESE 22:45:45 10° ENE
Cosmos 2237 Rocket 2.2 22:38:22 10° NNW 22:44:06 78° ENE 22:47:09 28° SE
USA 234 3.7 22:41:14 10° ENE 22:47:18 39° SE 22:49:36 30° S
SeaSat 1 3.8 22:42:59 10° ESE 22:47:23 34° NE 22:51:47 10° NNW
Cosmos 2266 Rocket 3.9 22:41:23 10° N 22:47:28 88° E 22:50:26 32° S
Cosmos 1980 3.7 22:42:39 10° NNW 22:48:21 87° ENE 22:51:12 31° SSE
Cosmos 1470 3.4 22:45:54 10° NNW 22:48:55 32° W 22:49:19 31° WSW
CZ-4C R/B 4.5 22:45:58 10° NW 22:50:54 29° N 22:57:04 10° ENE
ATLAS 2AS CENTAUR R/B 4.1 22:46:15 10° NW 22:52:31 37° NNE 22:58:45 10° E
Intercosmos 24 3.9 22:48:49 10° N 22:52:41 62° ENE 22:53:30 46° SE
ARIANE 5 R/B 3.0 22:52:41 37° SSW 22:54:05 53° W 22:58:29 10° NNW
ALOS 2 2.8 22:54:46 40° SSW 22:56:07 60° W 23:00:29 10° NNW
COSMOS 2428 3.3 22:52:07 10° NW 22:57:28 43° WSW 22:59:34 31° SSW
Cosmos 2227 Rocket 3.4 22:55:49 23° SE 22:57:30 26° ESE 23:02:08 10° NE
Helios 1B rocket 3.8 22:58:18 20° WSW 22:58:53 20° W 23:01:35 10° NW
Meteor 2-4 Rocket 4.1 23:00:13 31° SSE 23:02:24 48° E 23:07:43 10° NNE
Cosmos 1898 Rocket 4.4 22:58:08 10° NW 23:02:50 35° WSW 23:04:34 28° SW
ISS -1.5 23:00:24 10° W 23:01:11 15° W 23:01:11 15° W
BlueWalker 3 3.8 23:05:21 17° E 23:05:21 17° E 23:06:30 10° E
Cosmos 2263 Rocket 3.8 23:03:56 17° SE 23:05:40 20° E 23:09:33 10° NE
CZ-2C R/B 3.5 23:01:09 10° NNE 23:06:53 61° E 23:09:26 33° SSE
Meteor 1-11 Rocket 3.9 23:02:12 10° NNW 23:07:48 62° W 23:10:10 34° SSW
Cosmos 1766 Rocket 3.5 23:04:29 10° N 23:08:47 74° ENE 23:10:08 43° SSE
SAR-Lupe-2 3.8 23:10:57 45° WSW 23:11:07 45° W 23:14:21 10° NNW
Meteor 1-10 Rocket 4.4 23:11:29 30° SSW 23:14:31 75° WNW 23:20:30 10° N
Cosmos 1238 Rocket 3.0 23:14:04 46° SSE 23:15:04 65° E 23:19:29 10° NNE
PSLV R/B 3.7 23:11:24 10° N 23:15:41 71° WNW 23:17:16 38° SW
Cosmos 1655 Rocket 4.0 23:14:41 10° N 23:20:58 81° ENE 23:24:15 30° SSE
Cosmos 192 4.3 23:17:14 10° NNW 23:22:12 85° ENE 23:24:20 35° SSE
Alouette 2 Rocket 3.5 23:22:54 10° NNW 23:26:42 88° WSW 23:28:18 40° SSE
Meteor 1-27 Rocket 3.7 23:25:49 33° SSW 23:28:35 85° WNW 23:34:21 10° NNE
Meteor 2-10 Rocket 3.8 23:23:46 10° N 23:29:19 76° ENE 23:32:13 30° SSE
Cosmos 841 Rocket 4.3 23:27:23 20° WSW 23:30:47 47° WNW 23:35:52 10° NNE
Cosmos 2297 Rocket 2.1 23:27:59 31° SSW 23:30:48 89° WNW 23:36:30 10° NNE
SL-14 R/B 4.1 23:39:49 33° SE 23:40:43 39° E 23:44:17 10° NNE
CZ-4C R/B 3.7 23:38:03 10° NNE 23:41:18 39° E 23:41:47 36° ESE
Cosmos 2221 4.2 23:39:35 17° WSW 23:41:37 24° WNW 23:45:05 10° NNW
Cosmos 158 Rocket 4.1 23:39:40 36° S 23:41:51 70° ESE 23:47:10 10° NNE
ACS3 Solar Sail 2.4 23:37:17 10° NNE 23:43:02 46° E 23:46:10 25° SSE
MetOp-A 4.4 23:42:38 34° SW 23:44:09 44° W 23:48:36 10° NNW
Landsat 5 3.4 23:43:19 10° NNE 23:47:24 68° ESE 23:48:28 45° SSE
Cosmos 1500 Rocket 4.4 23:44:21 10° N 23:48:37 45° ENE 23:50:58 23° SE
